JNA265 RKSI-RJFF

Flight info

Callsign JNA265
Flight time 0h 59m
Altitude 31000
Route DCT OSPOT Y782 TGU Y781 BESNA Y209 IKE DCT
Aircraft B738/M-SDE2E3FGHIRWXY/LB1

Departure

Time 2026-05-07 15:26
Airport Incheon International Airport (RKSI)

Arrival

Time 2026-05-07 16:26
Airport Fukuoka Airport (RJFF)
Time Latitude Longitude Altitude Speed Heading
2026-05-07 14:44 37.47073 126.42652 31 ft 0 kts 144°
2026-05-07 14:50 37.47073 126.42651 31 ft 0 kts 144°
2026-05-07 15:04 37.47074 126.42651 32 ft 0 kts 144°
2026-05-07 15:05 37.47086 126.42640 32 ft 3 kts 144°
2026-05-07 15:05 37.47102 126.42625 31 ft 3 kts 139°
2026-05-07 15:05 37.47112 126.42611 32 ft 1 kts 112°
2026-05-07 15:05 37.47114 126.42597 32 ft 2 kts 72°
2026-05-07 15:06 37.47110 126.42585 31 ft 1 kts 59°
2026-05-07 15:06 37.47105 126.42576 31 ft 1 kts 56°
2026-05-07 15:06 37.47101 126.42569 31 ft 0 kts 55°
2026-05-07 15:10 37.47102 126.42571 32 ft 1 kts 55°
2026-05-07 15:10 37.47114 126.42593 31 ft 5 kts 55°
2026-05-07 15:10 37.47144 126.42646 30 ft 10 kts 55°
2026-05-07 15:10 37.47194 126.42733 31 ft 14 kts 52°
2026-05-07 15:11 37.47282 126.42765 31 ft 14 kts 38°
2026-05-07 15:11 37.47339 126.42860 31 ft 14 kts 55°
2026-05-07 15:11 37.47403 126.42975 29 ft 18 kts 55°
2026-05-07 15:11 37.47435 126.43095 30 ft 12 kts 121°
2026-05-07 15:12 37.47454 126.43192 30 ft 14 kts 54°
2026-05-07 15:12 37.47517 126.43303 32 ft 18 kts 55°
2026-05-07 15:12 37.47594 126.43440 32 ft 20 kts 54°
2026-05-07 15:12 37.47672 126.43579 32 ft 19 kts 54°
2026-05-07 15:13 37.47661 126.43677 31 ft 13 kts 142°
2026-05-07 15:13 37.47575 126.43753 31 ft 18 kts 145°
2026-05-07 15:13 37.47458 126.43856 32 ft 23 kts 145°
2026-05-07 15:13 37.47328 126.43971 32 ft 23 kts 145°
2026-05-07 15:14 37.47244 126.44048 32 ft 22 kts 144°
2026-05-07 15:14 37.46958 126.44300 31 ft 21 kts 145°
2026-05-07 15:14 37.46843 126.44404 30 ft 20 kts 142°
2026-05-07 15:15 37.46730 126.44506 30 ft 20 kts 145°
2026-05-07 15:15 37.46607 126.44615 31 ft 23 kts 144°
2026-05-07 15:15 37.46469 126.44738 31 ft 26 kts 144°
2026-05-07 15:15 37.46320 126.44871 31 ft 26 kts 144°
2026-05-07 15:16 37.46177 126.44997 32 ft 24 kts 144°
2026-05-07 15:16 37.46043 126.45117 32 ft 24 kts 144°
2026-05-07 15:16 37.45899 126.45245 32 ft 25 kts 144°
2026-05-07 15:16 37.45760 126.45369 31 ft 24 kts 144°
2026-05-07 15:17 37.45629 126.45486 32 ft 23 kts 144°
2026-05-07 15:17 37.45501 126.45600 31 ft 23 kts 144°
2026-05-07 15:17 37.45382 126.45706 32 ft 15 kts 144°
2026-05-07 15:17 37.45305 126.45776 30 ft 10 kts 138°
2026-05-07 15:18 37.45303 126.45853 30 ft 10 kts 55°
2026-05-07 15:18 37.45331 126.45904 32 ft 5 kts 54°
2026-05-07 15:18 37.45341 126.45921 32 ft 2 kts 54°
2026-05-07 15:18 37.45344 126.45926 32 ft 0 kts 54°
2026-05-07 15:19 37.45345 126.45928 32 ft 2 kts 54°
2026-05-07 15:19 37.45357 126.45949 32 ft 0 kts 54°
2026-05-07 15:20 37.45358 126.45951 32 ft 0 kts 54°
2026-05-07 15:20 37.45359 126.45952 32 ft 0 kts 54°
2026-05-07 15:24 37.45360 126.45955 32 ft 2 kts 54°
2026-05-07 15:24 37.45372 126.45976 30 ft 8 kts 54°
2026-05-07 15:24 37.45418 126.46056 32 ft 1 kts 54°
2026-05-07 15:24 37.45421 126.46063 32 ft 2 kts 54°
2026-05-07 15:25 37.45445 126.46068 32 ft 5 kts 333°
2026-05-07 15:25 37.45483 126.46033 32 ft 7 kts 323°
2026-05-07 15:25 37.45536 126.45987 32 ft 14 kts 325°
2026-05-07 15:25 37.45803 126.45748 32 ft 84 kts 324°
2026-05-07 15:26 37.46462 126.45161 33 ft 146 kts 324°
2026-05-07 15:26 37.47360 126.44351 549 ft 158 kts 323°
2026-05-07 15:26 37.48242 126.43613 1639 ft 142 kts 326°
2026-05-07 15:26 37.49075 126.42933 2556 ft 138 kts 328°
2026-05-07 15:27 37.49864 126.42288 3370 ft 139 kts 328°
2026-05-07 15:27 37.50756 126.41558 3734 ft 171 kts 327°
2026-05-07 15:27 37.51831 126.40677 3974 ft 197 kts 327°
2026-05-07 15:27 37.53042 126.39682 4345 ft 216 kts 327°
2026-05-07 15:28 37.54325 126.38626 5055 ft 224 kts 327°
2026-05-07 15:28 37.55635 126.37554 5427 ft 224 kts 329°
2026-05-07 15:28 37.57117 126.36794 5493 ft 231 kts 341°
2026-05-07 15:28 37.58661 126.36264 5502 ft 228 kts 343°
2026-05-07 15:29 37.60192 126.35750 5503 ft 227 kts 342°
2026-05-07 15:29 37.61707 126.35304 5497 ft 228 kts 353°
2026-05-07 15:29 37.63270 126.35648 5503 ft 234 kts 20°
2026-05-07 15:29 37.64615 126.36926 5509 ft 259 kts 47°
2026-05-07 15:30 37.65464 126.39034 5521 ft 278 kts 66°
2026-05-07 15:30 37.66109 126.41352 5503 ft 280 kts 66°
2026-05-07 15:30 37.66701 126.43690 5484 ft 281 kts 76°
2026-05-07 15:30 37.66635 126.46161 5553 ft 288 kts 102°
2026-05-07 15:31 37.66280 126.47534 5755 ft 294 kts 109°
2026-05-07 15:31 37.65550 126.49940 6607 ft 295 kts 110°
2026-05-07 15:31 37.64833 126.52346 7442 ft 298 kts 110°
2026-05-07 15:31 37.63978 126.54743 8162 ft 304 kts 127°
2026-05-07 15:32 37.62518 126.56669 8974 ft 304 kts 140°
2026-05-07 15:32 37.60935 126.58465 9788 ft 308 kts 142°
2026-05-07 15:32 37.59313 126.60279 10393 ft 319 kts 142°
2026-05-07 15:32 37.57592 126.62204 10575 ft 344 kts 142°
2026-05-07 15:33 37.55748 126.64278 10791 ft 366 kts 142°
2026-05-07 15:33 37.53825 126.66460 11275 ft 377 kts 142°
2026-05-07 15:33 37.51873 126.68690 11986 ft 381 kts 142°
2026-05-07 15:33 37.49906 126.70940 12773 ft 383 kts 142°
2026-05-07 15:34 37.47921 126.73209 13532 ft 388 kts 143°
2026-05-07 15:34 37.45911 126.75503 14210 ft 393 kts 143°
2026-05-07 15:34 37.43878 126.77818 14928 ft 396 kts 144°
2026-05-07 15:34 37.41832 126.80145 15672 ft 399 kts 145°
2026-05-07 15:35 37.39709 126.82394 16392 ft 399 kts 150°
2026-05-07 15:35 37.37475 126.84481 17108 ft 401 kts 153°
2026-05-07 15:35 37.35213 126.86551 17837 ft 404 kts 153°
2026-05-07 15:35 37.32969 126.88637 18508 ft 408 kts 153°
2026-05-07 15:36 37.30659 126.90810 19086 ft 412 kts 153°
2026-05-07 15:36 37.28354 126.92988 19642 ft 417 kts 153°
2026-05-07 15:36 37.26024 126.95191 20167 ft 422 kts 154°
2026-05-07 15:36 37.23675 126.97414 20698 ft 426 kts 154°
2026-05-07 15:37 37.21341 126.99620 21213 ft 430 kts 154°
2026-05-07 15:37 37.18941 127.01889 21728 ft 434 kts 154°
2026-05-07 15:37 37.16513 127.04182 22215 ft 439 kts 155°
2026-05-07 15:37 37.14062 127.06493 22688 ft 443 kts 155°
2026-05-07 15:38 37.11586 127.08826 23138 ft 447 kts 155°
2026-05-07 15:38 37.09087 127.11180 23568 ft 452 kts 155°
2026-05-07 15:38 37.06564 127.13554 23922 ft 456 kts 155°
2026-05-07 15:38 37.04025 127.15944 24318 ft 458 kts 155°
2026-05-07 15:39 37.01474 127.18343 24713 ft 460 kts 155°
2026-05-07 15:39 36.98970 127.20695 25088 ft 462 kts 155°
2026-05-07 15:39 36.96393 127.23112 25466 ft 465 kts 155°
2026-05-07 15:39 36.93796 127.25546 25838 ft 467 kts 155°
2026-05-07 15:40 36.91190 127.27987 26215 ft 469 kts 155°
2026-05-07 15:40 36.88569 127.30440 26569 ft 472 kts 155°
2026-05-07 15:40 36.85934 127.32902 26948 ft 474 kts 155°
2026-05-07 15:40 36.83301 127.35393 27321 ft 479 kts 152°
2026-05-07 15:41 36.80789 127.38216 27674 ft 490 kts 146°
2026-05-07 15:41 36.78384 127.41274 28009 ft 496 kts 144°
2026-05-07 15:41 36.75999 127.44388 28330 ft 498 kts 144°
2026-05-07 15:41 36.73569 127.47465 28706 ft 497 kts 146°
2026-05-07 15:42 36.71117 127.50482 29197 ft 494 kts 146°
2026-05-07 15:42 36.68672 127.53460 29738 ft 490 kts 146°
2026-05-07 15:42 36.66240 127.56422 30234 ft 488 kts 147°
2026-05-07 15:42 36.63805 127.59339 30683 ft 482 kts 149°
2026-05-07 15:43 36.61227 127.61826 30950 ft 472 kts 156°
2026-05-07 15:43 36.58531 127.64124 30939 ft 469 kts 158°
2026-05-07 15:43 36.53099 127.68580 30947 ft 467 kts 158°
2026-05-07 15:44 36.47689 127.73054 30931 ft 467 kts 157°
2026-05-07 15:44 36.42309 127.77574 30935 ft 467 kts 157°
2026-05-07 15:45 36.36932 127.82114 30928 ft 467 kts 156°
2026-05-07 15:45 36.31560 127.86647 30925 ft 467 kts 156°
2026-05-07 15:46 36.23502 127.93424 30924 ft 467 kts 156°
2026-05-07 15:47 36.18121 127.97938 30926 ft 468 kts 156°
2026-05-07 15:47 36.12729 128.02454 30931 ft 467 kts 156°
2026-05-07 15:48 36.07342 128.06960 30916 ft 468 kts 156°
2026-05-07 15:48 36.01945 128.11466 30918 ft 469 kts 156°
2026-05-07 15:49 35.96650 128.15879 30916 ft 469 kts 156°
2026-05-07 15:49 35.91229 128.20389 30917 ft 470 kts 156°
2026-05-07 15:50 35.85792 128.24906 30893 ft 472 kts 156°
2026-05-07 15:50 35.80346 128.29423 30907 ft 472 kts 156°
2026-05-07 15:51 35.74895 128.33937 30908 ft 473 kts 156°
2026-05-07 15:51 35.69428 128.38456 30900 ft 474 kts 156°
2026-05-07 15:52 35.63960 128.42969 30898 ft 474 kts 155°
2026-05-07 15:52 35.58488 128.47478 30887 ft 473 kts 155°
2026-05-07 15:53 35.53025 128.51973 30897 ft 472 kts 155°
2026-05-07 15:53 35.47550 128.56400 30883 ft 466 kts 160°
2026-05-07 15:54 35.41816 128.59888 30884 ft 458 kts 164°
2026-05-07 15:54 35.36501 128.62958 30890 ft 456 kts 164°
2026-05-07 15:55 35.30774 128.66310 30878 ft 456 kts 163°
2026-05-07 15:55 35.25100 128.69668 30574 ft 444 kts 163°
2026-05-07 15:55 35.22390 128.71278 30347 ft 434 kts 163°
2026-05-07 15:56 35.19667 128.72888 30100 ft 426 kts 164°
2026-05-07 15:56 35.16994 128.74458 29850 ft 426 kts 164°
2026-05-07 15:56 35.14307 128.76033 29571 ft 429 kts 163°
2026-05-07 15:56 35.11618 128.77613 29299 ft 430 kts 163°
2026-05-07 15:57 35.08911 128.79203 29041 ft 431 kts 163°
2026-05-07 15:57 35.06206 128.80790 28775 ft 432 kts 163°
2026-05-07 15:57 35.03493 128.82379 28514 ft 433 kts 163°
2026-05-07 15:57 35.00787 128.83982 28253 ft 435 kts 161°
2026-05-07 15:58 34.98133 128.85825 27990 ft 440 kts 157°
2026-05-07 15:58 34.95564 128.87769 27737 ft 441 kts 156°
2026-05-07 15:58 34.92974 128.89781 27482 ft 442 kts 156°
2026-05-07 15:58 34.90381 128.91800 27230 ft 442 kts 156°
2026-05-07 15:59 34.87787 128.93800 26984 ft 441 kts 156°
2026-05-07 15:59 34.85187 128.95786 26736 ft 441 kts 156°
2026-05-07 15:59 34.82586 128.97758 26493 ft 441 kts 156°
2026-05-07 15:59 34.79977 128.99727 26251 ft 442 kts 156°
2026-05-07 16:00 34.77360 129.01698 26012 ft 442 kts 156°
2026-05-07 16:00 34.74744 129.03666 25775 ft 443 kts 156°
2026-05-07 16:00 34.72120 129.05641 25535 ft 444 kts 156°
2026-05-07 16:00 34.69491 129.07618 25043 ft 445 kts 156°
2026-05-07 16:01 34.66860 129.09597 25064 ft 446 kts 156°
2026-05-07 16:01 34.64215 129.11583 24948 ft 448 kts 156°
2026-05-07 16:01 34.61566 129.13572 24909 ft 448 kts 156°
2026-05-07 16:01 34.58909 129.15559 24902 ft 448 kts 156°
2026-05-07 16:02 34.56254 129.17540 24902 ft 449 kts 156°
2026-05-07 16:02 34.53594 129.19523 24897 ft 448 kts 156°
2026-05-07 16:02 34.50932 129.21505 24905 ft 448 kts 156°
2026-05-07 16:02 34.48278 129.23482 24901 ft 448 kts 156°
2026-05-07 16:03 34.45646 129.25445 24896 ft 437 kts 156°
2026-05-07 16:03 34.43098 129.27351 24896 ft 424 kts 156°
2026-05-07 16:03 34.40603 129.29211 24906 ft 420 kts 156°
2026-05-07 16:03 34.38113 129.31057 24911 ft 420 kts 156°
2026-05-07 16:04 34.35610 129.32907 24707 ft 423 kts 156°
2026-05-07 16:04 34.33117 129.34752 24349 ft 418 kts 156°
2026-05-07 16:04 34.30645 129.36585 23895 ft 415 kts 156°
2026-05-07 16:04 34.28193 129.38402 23424 ft 412 kts 155°
2026-05-07 16:05 34.25755 129.40207 22865 ft 410 kts 155°
2026-05-07 16:05 34.23333 129.41999 22364 ft 406 kts 155°
2026-05-07 16:05 34.20935 129.43772 21880 ft 402 kts 155°
2026-05-07 16:05 34.18559 129.45528 21405 ft 399 kts 155°
2026-05-07 16:06 34.16199 129.47270 20938 ft 396 kts 155°
2026-05-07 16:06 34.13860 129.48996 20480 ft 393 kts 155°
2026-05-07 16:06 34.11535 129.50709 20020 ft 390 kts 155°
2026-05-07 16:06 34.09228 129.52409 19562 ft 387 kts 155°
2026-05-07 16:07 34.06943 129.54091 19113 ft 385 kts 156°
2026-05-07 16:07 34.04661 129.55772 18647 ft 383 kts 156°
2026-05-07 16:07 34.03161 129.56882 18341 ft 382 kts 156°
2026-05-07 16:07 34.00142 129.59124 17658 ft 379 kts 155°
2026-05-07 16:08 33.98660 129.60224 17345 ft 377 kts 155°
2026-05-07 16:08 33.96435 129.61875 16985 ft 371 kts 155°
2026-05-07 16:08 33.94222 129.63496 16947 ft 370 kts 156°
2026-05-07 16:08 33.92062 129.65068 16924 ft 356 kts 156°
2026-05-07 16:09 33.89981 129.66581 16783 ft 345 kts 156°
2026-05-07 16:09 33.87908 129.68078 16158 ft 350 kts 156°
2026-05-07 16:09 33.85907 129.69797 15628 ft 360 kts 144°
2026-05-07 16:09 33.84216 129.72039 15319 ft 363 kts 134°
2026-05-07 16:10 33.82691 129.74450 15081 ft 364 kts 133°
2026-05-07 16:10 33.81158 129.76910 14835 ft 370 kts 132°
2026-05-07 16:10 33.79606 129.79400 14560 ft 374 kts 132°
2026-05-07 16:10 33.78042 129.81899 14293 ft 373 kts 132°
2026-05-07 16:11 33.76482 129.84378 14028 ft 370 kts 132°
2026-05-07 16:11 33.74936 129.86826 13806 ft 366 kts 132°
2026-05-07 16:11 33.73397 129.89252 13537 ft 364 kts 132°
2026-05-07 16:11 33.72088 129.91860 13214 ft 369 kts 117°
2026-05-07 16:12 33.71154 129.94749 12744 ft 370 kts 113°
2026-05-07 16:12 33.70284 129.97679 12068 ft 375 kts 112°
2026-05-07 16:12 33.69417 130.00627 11542 ft 374 kts 112°
2026-05-07 16:12 33.68729 130.02964 11011 ft 378 kts 112°
2026-05-07 16:13 33.67859 130.05901 10454 ft 378 kts 111°
2026-05-07 16:13 33.66983 130.08836 10267 ft 366 kts 112°
2026-05-07 16:13 33.66139 130.11657 10168 ft 352 kts 112°
2026-05-07 16:13 33.65407 130.14405 10089 ft 341 kts 105°
2026-05-07 16:14 33.64925 130.17140 10022 ft 329 kts 102°
2026-05-07 16:14 33.64501 130.19790 9931 ft 315 kts 102°
2026-05-07 16:14 33.64108 130.22311 9727 ft 303 kts 102°
2026-05-07 16:14 33.63728 130.24778 9289 ft 299 kts 102°
2026-05-07 16:15 33.63354 130.27228 8835 ft 297 kts 102°
2026-05-07 16:15 33.62986 130.29656 8394 ft 294 kts 102°
2026-05-07 16:15 33.62626 130.32061 7963 ft 292 kts 102°
2026-05-07 16:15 33.62274 130.34447 7552 ft 288 kts 102°
2026-05-07 16:16 33.61929 130.36803 7155 ft 285 kts 102°
2026-05-07 16:16 33.61604 130.39135 6760 ft 285 kts 97°
2026-05-07 16:16 33.61844 130.41492 6487 ft 287 kts 69°
2026-05-07 16:16 33.62927 130.43451 6262 ft 283 kts 41°
2026-05-07 16:17 33.64606 130.44610 5965 ft 278 kts 12°
2026-05-07 16:17 33.66489 130.44719 5663 ft 270 kts 344°
2026-05-07 16:17 33.68232 130.43956 5400 ft 265 kts 332°
2026-05-07 16:17 33.69902 130.43016 5119 ft 265 kts 330°
2026-05-07 16:18 33.71563 130.42057 4862 ft 264 kts 330°
2026-05-07 16:18 33.73133 130.40980 4711 ft 253 kts 314°
2026-05-07 16:18 33.74092 130.39317 4536 ft 238 kts 284°
2026-05-07 16:18 33.74189 130.37393 4258 ft 230 kts 253°
2026-05-07 16:19 33.73422 130.35757 3959 ft 227 kts 222°
2026-05-07 16:19 33.72033 130.34892 3657 ft 230 kts 192°
2026-05-07 16:19 33.70433 130.34769 3403 ft 231 kts 183°
2026-05-07 16:19 33.68826 130.34765 3135 ft 231 kts 182°
2026-05-07 16:20 33.67215 130.34773 3064 ft 232 kts 182°
2026-05-07 16:20 33.65603 130.34787 3029 ft 229 kts 182°
2026-05-07 16:20 33.64037 130.34802 3018 ft 222 kts 182°
2026-05-07 16:20 33.62530 130.34819 3006 ft 210 kts 182°
2026-05-07 16:21 33.61112 130.34837 2885 ft 205 kts 181°
2026-05-07 16:21 33.59704 130.35210 2654 ft 208 kts 155°
2026-05-07 16:21 33.58581 130.36230 2640 ft 198 kts 142°
2026-05-07 16:21 33.57566 130.37307 2486 ft 192 kts 141°
2026-05-07 16:22 33.56607 130.38317 2434 ft 180 kts 142°
2026-05-07 16:22 33.55690 130.39282 2296 ft 172 kts 142°
2026-05-07 16:22 33.54794 130.40215 2126 ft 162 kts 142°
2026-05-07 16:22 33.53955 130.41087 1854 ft 158 kts 142°
2026-05-07 16:23 33.53165 130.41903 1610 ft 149 kts 142°
2026-05-07 16:23 33.52361 130.42724 1435 ft 155 kts 142°
2026-05-07 16:23 33.51580 130.43578 1275 ft 150 kts 128°
2026-05-07 16:23 33.51376 130.44792 1148 ft 156 kts 77°
2026-05-07 16:24 33.51863 130.45935 1102 ft 156 kts 61°
2026-05-07 16:24 33.52470 130.47004 1036 ft 154 kts 54°
2026-05-07 16:24 33.53296 130.47764 1020 ft 154 kts 14°
2026-05-07 16:24 33.54366 130.47727 858 ft 155 kts 349°
2026-05-07 16:25 33.55368 130.47287 580 ft 152 kts 329°
2026-05-07 16:25 33.56280 130.46641 365 ft 153 kts 332°
2026-05-07 16:25 33.57198 130.46013 155 ft 151 kts 329°
2026-05-07 16:25 33.58097 130.45406 40 ft 142 kts 329°
2026-05-07 16:26 33.58817 130.44915 32 ft 90 kts 330°
2026-05-07 16:26 33.59123 130.44653 27 ft 36 kts 308°
2026-05-07 16:26 33.59216 130.44478 27 ft 21 kts 300°
2026-05-07 16:26 33.59199 130.44359 29 ft 11 kts 239°
2026-05-07 16:27 33.59153 130.44301 30 ft 7 kts 194°
2026-05-07 16:27 33.59110 130.44336 29 ft 8 kts 138°
2026-05-07 16:27 33.59064 130.44385 28 ft 9 kts 139°
2026-05-07 16:27 33.59014 130.44414 29 ft 8 kts 173°
2026-05-07 16:28 33.58966 130.44434 30 ft 8 kts 151°
2026-05-07 16:28 33.58920 130.44464 31 ft 7 kts 156°
2026-05-07 16:28 33.58884 130.44431 31 ft 7 kts 239°
2026-05-07 16:28 33.58862 130.44380 29 ft 7 kts 242°
2026-05-07 16:29 33.58842 130.44336 29 ft 3 kts 242°
2026-05-07 16:29 33.58840 130.44332 29 ft 0 kts 241°